Zurück zum Katalog

CZ-6A DEB

AktivPO
NORAD 63393·DEBRIS·🇨🇳 China

Gestartet Aug 6, 2024 von Taiyuan Satellite Launch Center

Loading…

Nächste Überflüge (nächste 24 Stunden)

TLE

AktuellSource: Space-Track

Epoche: Sep 14, 2026, 11:48 UTC

1 63393U 24140ADQ 26257.49168479  .00000414  00000-0  20421-3 0  9996
2 63393  89.0195 267.5919 0068299 273.2832  86.0543 14.14587989108234

Verfolge CZ-6A DEB in Echtzeit mit AllMySat

Download on the App Store